Satellite: FAST1-2
Catalog number: 37227
Epoch time:      11054.50853287
Element set:    0087
Inclination:      071.9737 deg
RA of node:       289.8955 deg
Eccentricity:    0.0016378
Arg of perigee:   137.2224 deg
Mean anomaly:     223.0215 deg
Mean motion:   14.76395354 rev/day
Decay rate:       2.07e-06 rev/day^2
Epoch rev:           01408
Checksum:              308

/EX
SB KEPS @ AMSAT  $ORB11055.W
Orbital Elements  11055.WEATHER

HR AMSAT ORBITAL ELEMENTS FOR WEATHER SATELLITES
FROM WA5QGD FORT WORTH,TX February 24, 2011
Send Subscribe/unsubscribe to KEPS at http://www.amsat.org/mailman/listinfo/kep
BID: ORB11055.W
TO ALL RADIO AMATEURS BT

Satellite: NOAA-10
Catalog number: 16969
Epoch time:      11054.65656686
Element set:    0406
Inclination:      098.6314 deg
RA of node:       085.9239 deg
Eccentricity:    0.0011979
Arg of perigee:   193.8242 deg
Mean anomaly:     166.2596 deg
Mean motion:   14.27444681 rev/day
Decay rate:       -3.5e-07 rev/day^2
Epoch rev:           27145
Checksum:              339

Satellite: NOAA-11
Catalog number: 19531
Epoch time:      11054.77299232
Element set:    0413
Inclination:      098.7533 deg
RA of node:       144.3782 deg
Eccentricity:    0.0011564
Arg of perigee:   148.5153 deg
Mean anomaly:     211.6712 deg
Mean motion:   14.14904758 rev/day
Decay rate:       -7.0e-08 rev/day^2
Epoch rev:           15671
Checksum:              292

Satellite: NOAA-12
Catalog number: 21263
Epoch time:      11054.81518755
Element set:    0908
Inclination:      098.7566 deg
RA of node:       072.8291 deg
Eccentricity:    0.0012967
Arg of perigee:   152.9824 deg
Mean anomaly:     207.2031 deg
Mean motion:   14.25684308 rev/day
Decay rate:      -1.27e-06 rev/day^2
Epoch rev:           02825
Checksum:              305

Satellite: MET-3/5
Catalog number: 21655
Epoch time:      11055.54847648
Element set:      46
Inclination:      082.5585 deg
RA of node:       130.3631 deg
Eccentricity:    0.0014825
Arg of perigee:   079.8753 deg
Mean anomaly:     280.4063 deg
Mean motion:   13.17028481 rev/day
Decay rate:        5.1e-07 rev/day^2
Epoch rev:           93889
Checksum:              316

Satellite: MET-2/21
Catalog number: 22782
Epoch time:      11054.50816689
Element set:    0028
Inclination:      082.5445 deg
RA of node:       053.0667 deg
Eccentricity:    0.0023906
Arg of perigee:   059.7251 deg
Mean anomaly:     300.6266 deg
Mean motion:   13.83652420 rev/day
Decay rate:       -3.0e-07 rev/day^2
Epoch rev:           88283
Checksum:              295

Satellite: OKEAN-4
Catalog number: 23317
Epoch time:      11054.81203176
Element set:     482
Inclination:      082.5400 deg
RA of node:       119.0009 deg
Eccentricity:    0.0023468
Arg of perigee:   129.9167 deg
Mean anomaly:     230.4135 deg
Mean motion:   14.82946392 rev/day
Decay rate:       3.84e-06 rev/day^2
Epoch rev:           88374
Checksum:              291

Satellite: NOAA-14
Catalog number: 23455
Epoch time:      11054.94503405
Element set:    0392
Inclination:      098.8566 deg
RA of node:       138.6891 deg
Eccentricity:    0.0008597
Arg of perigee:   239.7546 deg
Mean anomaly:     120.2759 deg
Mean motion:   14.13807029 rev/day
Decay rate:        2.3e-07 rev/day^2
Epoch rev:           83307
Checksum:              320

Satellite: NOAA-15
Catalog number: 25338
Epoch time:      11054.83005891
Element set:    0720
Inclination:      098.6464 deg
RA of node:       042.5819 deg
Eccentricity:    0.0011568
Arg of perigee:   064.5795 deg
Mean anomaly:     295.6558 deg
Mean motion:   14.24885515 rev/day
Decay rate:       1.01e-06 rev/day^2
Epoch rev:           66458
Checksum:              328

Satellite: RESURS
Catalog number: 25394
Epoch time:      11054.64784138
Element set:    0733
Inclination:      098.2994 deg
RA of node:       063.9253 deg
Eccentricity:    0.0000956
Arg of perigee:   165.7493 deg
Mean anomaly:     194.3707 deg
Mean motion:   14.24223896 rev/day
Decay rate:       -1.0e-08 rev/day^2
Epoch rev:           65614
Checksum:              319

Satellite: FENGYUN1
Catalog number: 25730
Epoch time:      11055.44194105
Element set:     265
Inclination:      098.8079 deg
RA of node:       019.1616 deg
Eccentricity:    0.0022103
Arg of perigee:   270.1006 deg
Mean anomaly:     089.7630 deg
Mean motion:   14.08505604 rev/day
Decay rate:       5.53e-06 rev/day^2
Epoch rev:           60719
Checksum:              271

Satellite: OKEAN-0
Catalog number: 25860
Epoch time:      11055.79564505
Element set:     238
Inclination:      097.8695 deg
RA of node:       025.4281 deg
Eccentricity:    0.0001488
Arg of perigee:   045.8381 deg
Mean anomaly:     314.2940 deg
Mean motion:   14.73714577 rev/day
Decay rate:       1.91e-06 rev/day^2
Epoch rev:           62410
Checksum:              306

Satellite: NOAA-16
Catalog number: 26536
Epoch time:      11054.89057462
Element set:    0200
Inclination:      099.1526 deg
RA of node:       083.0708 deg
Eccentricity:    0.0010322
Arg of perigee:   355.1200 deg
Mean anomaly:     004.9844 deg
Mean motion:   14.12598846 rev/day
Decay rate:       -2.9e-07 rev/day^2
Epoch rev:           53736
Checksum:              289

